Time,TemperatureF,DewpointF,PressureIn,WindDirection,WindDirectionDegrees,WindSpeedMPH,WindSpeedGustMPH,Humidity,HourlyPrecipIn,Conditions,Clouds,dailyrainin,SoftwareType,DateUTC
2013-05-05 00:00:00,54.0,36.0,29.85,West,281,0.0,0.0,50,0.00,,,-99.99,wx200d/1.3,2013-05-05 07:00:00,
2013-05-05 00:15:00,54.0,34.0,29.85,West,281,0.0,0.0,48,0.00,,,-99.99,wx200d/1.3,2013-05-05 07:15:00,
2013-05-05 00:30:00,53.8,34.0,29.85,West,281,0.0,0.0,48,0.00,,,-99.99,wx200d/1.3,2013-05-05 07:30:00,
2013-05-05 00:45:00,53.6,34.0,29.85,West,281,0.0,0.0,48,0.00,,,-99.99,wx200d/1.3,2013-05-05 07:45:00,
2013-05-05 01:00:00,53.2,36.0,29.85,West,281,0.0,0.0,49,0.00,,,-99.99,wx200d/1.3,2013-05-05 08:00:00,
2013-05-05 01:15:00,53.1,36.0,29.85,West,281,0.0,0.0,49,0.00,,,-99.99,wx200d/1.3,2013-05-05 08:15:00,
2013-05-05 01:30:00,53.2,36.0,29.85,West,281,0.0,0.0,49,0.00,,,-99.99,wx200d/1.3,2013-05-05 08:30:00,
2013-05-05 01:45:00,53.4,36.0,29.85,West,281,0.0,0.0,49,0.00,,,-99.99,wx200d/1.3,2013-05-05 08:45:00,
2013-05-05 02:00:00,53.4,34.0,29.85,ESE,106,0.0,0.0,48,0.00,,,-99.99,wx200d/1.3,2013-05-05 09:00:00,
2013-05-05 02:15:00,53.4,34.0,29.85,WNW,286,0.0,0.0,48,0.00,,,-99.99,wx200d/1.3,2013-05-05 09:15:00,
2013-05-05 02:30:00,53.2,34.0,29.85,WNW,286,0.0,0.0,48,0.00,,,-99.99,wx200d/1.3,2013-05-05 09:30:00,
2013-05-05 02:45:00,53.2,36.0,29.85,WNW,286,0.0,0.0,49,0.00,,,-99.99,wx200d/1.3,2013-05-05 09:45:00,
2013-05-05 03:00:00,53.2,36.0,29.85,WNW,286,0.0,0.0,49,0.00,,,-99.99,wx200d/1.3,2013-05-05 10:00:00,
2013-05-05 03:15:00,53.8,34.0,29.85,NW,308,0.0,0.0,48,0.00,,,-99.99,wx200d/1.3,2013-05-05 10:15:00,
2013-05-05 03:30:00,54.5,36.0,29.85,West,277,0.0,0.0,46,0.00,,,-99.99,wx200d/1.3,2013-05-05 10:30:00,
2013-05-05 03:45:00,54.7,34.0,29.85,West,266,0.0,0.0,45,0.00,,,-99.99,wx200d/1.3,2013-05-05 10:45:00,
2013-05-05 04:00:00,55.6,32.0,29.85,WNW,282,0.0,0.0,41,0.00,,,-99.99,wx200d/1.3,2013-05-05 11:00:00,
2013-05-05 04:15:00,56.1,32.0,29.85,East,82,0.0,0.0,40,0.00,,,-99.99,wx200d/1.3,2013-05-05 11:15:00,
2013-05-05 04:30:00,56.7,32.0,29.85,ENE,66,2.2,0.0,38,0.00,,,-99.99,wx200d/1.3,2013-05-05 11:30:00,
2013-05-05 04:45:00,57.0,32.0,29.85,West,273,0.0,0.0,37,0.00,,,-99.99,wx200d/1.3,2013-05-05 11:45:00,
2013-05-05 05:00:00,57.2,32.0,29.85,WNW,286,0.0,0.0,37,0.00,,,-99.99,wx200d/1.3,2013-05-05 12:00:00,
2013-05-05 05:15:00,57.4,32.0,29.88,West,272,0.0,0.0,36,0.00,,,-99.99,wx200d/1.3,2013-05-05 12:15:00,
2013-05-05 05:30:00,57.4,32.0,29.85,WNW,282,0.0,0.0,36,0.00,,,-99.99,wx200d/1.3,2013-05-05 12:30:00,
2013-05-05 05:45:00,57.6,32.0,29.88,West,273,0.0,0.0,36,0.00,,,-99.99,wx200d/1.3,2013-05-05 12:45:00,
2013-05-05 06:00:00,57.6,32.0,29.88,West,268,0.0,0.0,35,0.00,,,-99.99,wx200d/1.3,2013-05-05 13:00:00,
2013-05-05 06:15:00,57.6,32.0,29.88,ENE,63,0.0,0.0,35,0.00,,,-99.99,wx200d/1.3,2013-05-05 13:15:00,
2013-05-05 06:30:00,57.7,32.0,29.88,East,97,2.2,3.1,36,0.00,,,-99.99,wx200d/1.3,2013-05-05 13:30:00,
2013-05-05 06:45:00,57.7,32.0,29.88,West,279,0.0,0.0,36,0.00,,,-99.99,wx200d/1.3,2013-05-05 13:45:00,
2013-05-05 07:00:00,58.1,32.0,29.88,WNW,284,0.0,0.0,35,0.00,,,-99.99,wx200d/1.3,2013-05-05 14:00:00,
2013-05-05 07:15:00,58.1,32.0,29.91,WNW,289,0.0,0.0,35,0.00,,,-99.99,wx200d/1.3,2013-05-05 14:15:00,
2013-05-05 07:30:00,58.5,32.0,29.91,East,84,0.0,0.0,35,0.00,,,-99.99,wx200d/1.3,2013-05-05 14:30:00,
2013-05-05 07:45:00,58.5,32.0,29.91,West,280,0.0,0.0,35,0.00,,,-99.99,wx200d/1.3,2013-05-05 14:45:00,
2013-05-05 08:00:00,58.8,32.0,29.91,ENE,67,0.0,0.0,35,0.00,,,-99.99,wx200d/1.3,2013-05-05 15:00:00,
2013-05-05 08:15:00,59.5,32.0,29.91,West,263,0.0,2.2,33,0.00,,,-99.99,wx200d/1.3,2013-05-05 15:15:00,
2013-05-05 08:30:00,60.6,32.0,29.91,East,89,0.0,0.0,31,0.00,,,-99.99,wx200d/1.3,2013-05-05 15:30:00,
2013-05-05 08:45:00,61.3,32.0,29.91,East,92,0.0,0.0,29,0.00,,,-99.99,wx200d/1.3,2013-05-05 15:45:00,
2013-05-05 09:00:00,62.2,32.0,29.91,ENE,63,0.0,0.0,27,0.00,,,-99.99,wx200d/1.3,2013-05-05 16:00:00,
2013-05-05 09:15:00,62.8,32.0,29.94,West,273,0.0,0.0,26,0.00,,,-99.99,wx200d/1.3,2013-05-05 16:15:00,
2013-05-05 09:30:00,64.2,32.0,29.94,NW,308,0.0,0.0,25,0.00,,,-99.99,wx200d/1.3,2013-05-05 16:30:00,
2013-05-05 09:45:00,65.1,32.0,29.91,NE,43,0.0,0.0,24,0.00,,,-99.99,wx200d/1.3,2013-05-05 16:45:00,
2013-05-05 10:00:00,64.8,32.0,29.91,NE,38,0.0,0.0,24,0.00,,,-99.99,wx200d/1.3,2013-05-05 17:00:00,
2013-05-05 10:15:00,63.3,32.0,29.94,WNW,294,0.0,0.0,25,0.00,,,-99.99,wx200d/1.3,2013-05-05 17:15:00,
2013-05-05 10:30:00,63.0,32.0,29.94,East,90,0.0,0.0,26,0.00,,,-99.99,wx200d/1.3,2013-05-05 17:30:00,
2013-05-05 10:45:00,63.5,32.0,29.94,West,265,0.0,0.0,26,0.00,,,-99.99,wx200d/1.3,2013-05-05 17:45:00,
2013-05-05 11:00:00,63.9,32.0,29.97,West,267,0.0,0.0,25,0.00,,,-99.99,wx200d/1.3,2013-05-05 18:00:00,
2013-05-05 11:15:00,63.3,32.0,29.97,West,267,0.0,0.0,27,0.00,,,-99.99,wx200d/1.3,2013-05-05 18:15:00,
2013-05-05 11:30:00,65.8,32.0,29.97,West,270,0.0,0.0,26,0.00,,,-99.99,wx200d/1.3,2013-05-05 18:30:00,
2013-05-05 11:45:00,66.6,32.0,29.97,West,270,0.0,0.0,26,0.00,,,-99.99,wx200d/1.3,2013-05-05 18:45:00,
2013-05-05 12:00:00,70.5,32.0,29.97,West,270,0.0,0.0,23,0.00,,,-99.99,wx200d/1.3,2013-05-05 19:00:00,
2013-05-05 12:15:00,68.9,32.0,29.97,West,270,0.0,0.0,23,0.00,,,-99.99,wx200d/1.3,2013-05-05 19:15:00,
2013-05-05 12:30:00,70.5,32.0,29.97,SW,236,0.0,0.0,23,0.00,,,-99.99,wx200d/1.3,2013-05-05 19:30:00,
2013-05-05 12:45:00,70.0,32.0,29.94,NE,45,0.0,2.2,22,0.00,,,-99.99,wx200d/1.3,2013-05-05 19:45:00,
2013-05-05 13:00:00,70.2,32.0,29.94,East,86,0.0,0.0,22,0.00,,,-99.99,wx200d/1.3,2013-05-05 20:00:00,
2013-05-05 13:15:00,71.6,32.0,29.94,West,280,0.0,0.0,22,0.00,,,-99.99,wx200d/1.3,2013-05-05 20:15:00,
2013-05-05 13:30:00,73.2,32.0,29.94,East,82,0.0,0.0,21,0.00,,,-99.99,wx200d/1.3,2013-05-05 20:30:00,
2013-05-05 13:45:00,73.9,32.0,29.94,West,279,0.0,0.0,21,0.00,,,-99.99,wx200d/1.3,2013-05-05 20:45:00,
2013-05-05 14:00:00,75.0,32.0,29.94,ENE,63,0.0,0.0,18,0.00,,,-99.99,wx200d/1.3,2013-05-05 21:00:00,
2013-05-05 14:15:00,75.2,32.0,29.94,ESE,108,0.0,0.0,18,0.00,,,-99.99,wx200d/1.3,2013-05-05 21:15:00,
2013-05-05 14:30:00,72.9,32.0,29.97,ENE,63,0.0,0.0,19,0.00,,,-99.99,wx200d/1.3,2013-05-05 21:30:00,
2013-05-05 14:45:00,71.6,32.0,29.97,East,87,0.0,0.0,21,0.00,,,-99.99,wx200d/1.3,2013-05-05 21:45:00,
2013-05-05 15:00:00,70.9,32.0,29.97,East,90,0.0,0.0,22,0.00,,,-99.99,wx200d/1.3,2013-05-05 22:00:00,
2013-05-05 15:15:00,70.9,32.0,29.97,East,93,0.0,0.0,22,0.00,,,-99.99,wx200d/1.3,2013-05-05 22:15:00,
2013-05-05 15:30:00,70.9,32.0,29.97,WSW,256,0.0,0.0,22,0.00,,,-99.99,wx200d/1.3,2013-05-05 22:30:00,
2013-05-05 15:45:00,69.3,32.0,29.97,ENE,75,0.0,0.0,22,0.00,,,-99.99,wx200d/1.3,2013-05-05 22:45:00,
2013-05-05 16:00:00,67.5,32.0,29.97,West,272,2.2,0.0,23,0.00,,,-99.99,wx200d/1.3,2013-05-05 23:00:00,
2013-05-05 16:15:00,65.7,32.0,29.97,WNW,291,0.0,0.0,24,0.00,,,-99.99,wx200d/1.3,2013-05-05 23:15:00,
2013-05-05 16:30:00,65.3,32.0,29.97,West,273,0.0,0.0,25,0.00,,,-99.99,wx200d/1.3,2013-05-05 23:30:00,
2013-05-05 16:45:00,65.8,32.0,29.97,West,275,0.0,0.0,24,0.00,,,-99.99,wx200d/1.3,2013-05-05 23:45:00,
2013-05-05 17:00:00,66.9,32.0,29.97,East,101,0.0,2.2,24,0.00,,,-99.99,wx200d/1.3,2013-05-06 00:00:00,
2013-05-05 17:15:00,68.2,32.0,29.97,East,93,0.0,4.0,23,0.00,,,-99.99,wx200d/1.3,2013-05-06 00:15:00,
2013-05-05 17:30:00,68.4,32.0,29.97,East,99,0.0,0.0,23,0.00,,,-99.99,wx200d/1.3,2013-05-06 00:30:00,
2013-05-05 17:45:00,69.1,32.0,29.97,West,262,0.0,0.0,22,0.00,,,-99.99,wx200d/1.3,2013-05-06 00:45:00,
2013-05-05 18:00:00,70.3,32.0,29.97,WNW,284,0.0,0.0,22,0.00,,,-99.99,wx200d/1.3,2013-05-06 01:00:00,
2013-05-05 18:15:00,68.2,32.0,29.97,WSW,244,0.0,0.0,22,0.00,,,-99.99,wx200d/1.3,2013-05-06 01:15:00,
2013-05-05 18:30:00,69.3,32.0,29.97,East,83,0.0,0.0,22,0.00,,,-99.99,wx200d/1.3,2013-05-06 01:30:00,
2013-05-05 18:45:00,72.0,32.0,30.00,West,273,0.0,0.0,21,0.00,,,-99.99,wx200d/1.3,2013-05-06 01:45:00,
2013-05-05 19:00:00,72.3,32.0,30.00,WNW,297,0.0,0.0,21,0.00,,,-99.99,wx200d/1.3,2013-05-06 02:00:00,
2013-05-05 19:15:00,70.9,32.0,29.97,WNW,293,0.0,0.0,22,0.00,,,-99.99,wx200d/1.3,2013-05-06 02:15:00,
2013-05-05 19:30:00,67.5,32.0,30.00,WNW,293,0.0,0.0,22,0.00,,,-99.99,wx200d/1.3,2013-05-06 02:30:00,
2013-05-05 19:45:00,64.8,32.0,30.00,WNW,293,0.0,0.0,23,0.00,,,-99.99,wx200d/1.3,2013-05-06 02:45:00,
2013-05-05 20:00:00,63.1,32.0,30.00,WNW,293,0.0,0.0,24,0.00,,,-99.99,wx200d/1.3,2013-05-06 03:00:00,
2013-05-05 20:15:00,61.7,32.0,30.00,WNW,294,0.0,0.0,26,0.00,,,-99.99,wx200d/1.3,2013-05-06 03:15:00,
2013-05-05 20:30:00,60.8,32.0,30.00,WNW,294,0.0,0.0,27,0.00,,,-99.99,wx200d/1.3,2013-05-06 03:30:00,
2013-05-05 20:45:00,60.4,32.0,30.00,WNW,294,0.0,0.0,29,0.00,,,-99.99,wx200d/1.3,2013-05-06 03:45:00,
2013-05-05 21:00:00,60.6,32.0,30.00,WNW,294,0.0,0.0,31,0.00,,,-99.99,wx200d/1.3,2013-05-06 04:00:00,
2013-05-05 21:15:00,60.1,32.0,30.03,WNW,294,0.0,0.0,32,0.00,,,-99.99,wx200d/1.3,2013-05-06 04:15:00,
2013-05-05 21:30:00,59.7,32.0,30.03,WNW,294,0.0,0.0,33,0.00,,,-99.99,wx200d/1.3,2013-05-06 04:30:00,
2013-05-05 21:45:00,59.7,32.0,30.03,WNW,294,0.0,0.0,34,0.00,,,-99.99,wx200d/1.3,2013-05-06 04:45:00,
2013-05-05 22:00:00,59.4,32.0,30.03,WNW,294,0.0,0.0,34,0.00,,,-99.99,wx200d/1.3,2013-05-06 05:00:00,
2013-05-05 22:15:00,59.9,34.0,30.03,WNW,295,0.0,0.0,35,0.00,,,-99.99,wx200d/1.3,2013-05-06 05:15:00,
2013-05-05 22:30:00,59.4,32.0,30.03,WNW,295,0.0,0.0,35,0.00,,,-99.99,wx200d/1.3,2013-05-06 05:30:00,
2013-05-05 22:45:00,58.8,32.0,30.06,WNW,295,0.0,0.0,35,0.00,,,-99.99,wx200d/1.3,2013-05-06 05:45:00,
2013-05-05 23:00:00,59.2,32.0,30.06,WNW,295,0.0,0.0,35,0.00,,,-99.99,wx200d/1.3,2013-05-06 06:00:00,
2013-05-05 23:15:00,59.2,32.0,30.06,WNW,295,0.0,0.0,35,0.00,,,-99.99,wx200d/1.3,2013-05-06 06:15:00,
2013-05-05 23:30:00,58.5,32.0,30.06,WNW,295,0.0,0.0,36,0.00,,,-99.99,wx200d/1.3,2013-05-06 06:30:00,
2013-05-05 23:45:00,58.3,32.0,30.06,WNW,296,0.0,0.0,36,0.00,,,-99.99,wx200d/1.3,2013-05-06 06:45:00,